Wind_Speed
18 13 13 11 7 12 10 13 18 12 6 7 7 10 7 3 1 1 4 6 5 4 6 7 8 9 9 9 10 10 10 11
19 15 7 6 6 10 12 18 21 22 25 2 6 11 16 9 5 5 5 5 3 3 5 7 8 9 9 10 11 12 12 13
21 17 7 3 3 9 10 13 21 21 18 17 17 10 15 15 12 11 7 4 1 2 3 3 4 6 8 8 9 11 11 13
12 19 13 3 6 4 8 15 21 24 21 17 13 11 20 21 17 14 9 5 0 1 1 2 2 2 2 3 4 6 8 10
17 13 12 2 3 6 10 17 21 24 22 14 9 10 16 11 12 11 8 4 2 4 5 4 4 4 3 4 4 6 8 9
17 15 15 8 5 7 13 18 23 21 14 8 10 14 17 13 18 12 3 4 3 3 2 2 1 1 2 3 5 8 9 10
18 17 18 16 10 7 13 17 20 20 9 10 16 16 13 12 6 3 4 3 1 0 0 0 1 4 5 5 5 5 9 9
20 22 21 15 12 12 12 17 19 12 8 6 5 12 13 8 7 1 1 3 2 2 2 3 3 4 5 6 7 7 9 10
24 28 28 19 12 12 17 19 18 16 10 10 12 8 6 5 1 2 2 1 2 4 3 4 5 6 6 8 10 12 12 13
29 28 31 30 24 15 19 21 24 21 13 16 13 6 2 5 6 7 3 2 3 4 7 7 9 10 11 13 15 15 16 16
35 34 31 32 27 23 23 23 22 24 24 11 9 4 7 11 7 11 8 6 5 3 8 14 14 15 15 15 16 17 16 17
41 36 34 32 30 27 25 23 24 27 30 19 2 2 7 12 7 8 7 6 8 8 9 12 14 15 16 14 15 17 18 18
42 40 40 34 34 28 24 29 31 33 33 27 17 6 10 8 7 7 6 6 4 9 10 11 13 15 15 15 14 15 17 18
44 43 42 41 29 23 31 37 41 38 31 21 13 5 4 5 4 7 9 8 8 7 10 10 11 14 16 17 18 17 17 17
44 44 46 43 35 21 31 36 38 31 27 17 11 8 7 9 10 11 13 11 10 9 11 11 12 13 17 18 18 17 17 19
29 42 47 50 39 29 24 33 30 23 19 16 15 12 11 14 13 15 15 13 13 14 14 14 17 17 18 17 16 18 20 21
24 34 34 38 36 27 24 26 26 20 17 16 17 16 12 17 17 19 17 16 15 16 17 18 20 21 23 21 21 21 21 22
29 33 38 38 39 33 28 30 25 21 20 18 19 18 11 17 18 22 22 20 17 18 21 21 22 24 26 26 27 27 28 28
33 36 39 38 37 30 27 29 27 22 21 23 21 17 13 19 21 22 21 20 19 21 22 24 24 25 27 29 30 30 30 31
36 45 44 38 40 36 32 35 30 25 28 25 22 18 13 20 21 22 17 15 19 24 24 25 26 28 30 31 33 33 34 35
Wind_Direction
175 214 207 192 115 62 27 355 2 322 322 318 328 324 295 304 340 304 285 263 258 273 284 293 296 302 306 308 309 308 309 310
163 196 203 158 99 58 7 346 333 325 312 183 281 293 292 280 290 265 247 243 258 284 294 295 296 301 300 303 303 303 304 305
182 195 177 134 59 43 350 325 312 325 332 328 321 288 272 274 257 255 258 247 187 33 2 348 331 326 316 308 304 302 302 304
207 215 207 189 28 27 292 299 302 327 332 329 326 265 274 272 263 257 257 262 142 40 356 21 351 351 336 326 332 329 326 320
194 211 189 189 76 268 283 287 309 321 330 313 317 298 279 268 265 259 266 270 318 290 275 285 283 293 299 295 305 306 300 294
206 186 174 146 170 275 289 294 308 324 337 287 265 272 274 264 282 290 303 340 327 266 209 242 160 5 341 327 306 314 312 304
204 204 189 180 172 219 266 285 297 320 294 246 283 293 300 304 301 314 346 330 279 336 88 194 249 336 329 328 325 329 329 327
198 205 203 201 190 223 254 272 291 328 198 168 303 283 300 300 323 14 14 349 334 347 358 328 330 336 336 324 318 321 321 325
197 205 210 194 202 235 258 271 280 292 216 193 288 279 293 297 351 204 183 159 301 318 328 318 321 329 324 313 309 311 310 312
196 212 218 228 239 245 256 261 271 278 276 245 263 313 270 239 259 206 238 216 169 322 313 311 313 310 308 307 304 304 302 304
206 214 227 236 253 260 253 260 266 271 280 267 269 205 206 199 212 196 237 263 299 322 315 307 306 306 300 301 306 301 298 293
215 213 220 243 266 264 259 267 271 278 284 293 313 171 173 173 179 208 229 265 292 312 316 310 312 315 315 315 305 300 297 299
217 222 229 237 260 285 262 272 270 276 283 294 312 164 175 187 196 223 266 302 286 304 309 313 314 317 315 308 298 296 308 310
222 229 237 243 251 258 254 264 267 270 283 294 296 268 218 224 255 290 296 291 285 272 280 290 300 305 305 303 306 314 314 306
234 238 239 248 255 254 256 255 258 269 278 277 271 263 273 285 297 301 297 290 285 270 262 270 282 288 289 295 302 305 303 300
220 233 240 243 248 217 245 244 246 258 271 249 252 243 270 281 289 291 288 283 278 274 273 276 280 280 282 288 296 298 299 297
215 220 225 226 222 206 223 252 244 238 249 244 248 260 273 277 290 288 286 279 272 272 274 276 280 286 292 295 299 301 300 298
215 215 228 229 236 216 226 243 245 235 225 238 260 274 288 282 279 281 282 280 275 273 272 273 276 285 294 301 305 306 307 304
217 207 225 236 237 230 231 243 239 247 236 242 252 273 270 269 275 283 287 289 283 277 275 278 286 292 295 297 298 299 299 300
223 216 227 237 242 232 227 242 243 246 242 245 251 269 256 260 271 279 283 285 301 305 293 293 291 290 290 289 290 293 294 296
Height
5907 5903 5903 5906 5904 5907 5912 5914 5912 5912 5913 5913 5914 5914 5913 5912 5911 5911 5912 5911 5910 5910 5911 5912 5913 5913 5914 5914 5914 5914 5914 5913
5906 5903 5905 5907 5906 5908 5912 5913 5914 5915 5915 5914 5915 5915 5914 5913 5912 5912 5910 5909 5908 5910 5910 5911 5912 5913 5913 5913 5913 5913 5913 5912
5906 5906 5906 5905 5906 5908 5911 5913 5913 5913 5911 5912 5910 5911 5912 5912 5911 5910 5909 5908 5908 5908 5910 5910 5911 5912 5912 5912 5912 5912 5912 5912
5906 5904 5905 5906 5905 5907 5909 5912 5912 5910 5909 5908 5908 5909 5909 5908 5909 5908 5908 5907 5907 5908 5909 5910 5911 5911 5911 5911 5911 5910 5910 5910
5901 5904 5906 5905 5905 5907 5909 5909 5910 5910 5907 5907 5906 5906 5906 5908 5908 5906 5906 5905 5906 5908 5909 5909 5910 5910 5910 5910 5909 5908 5908 5907
5899 5904 5903 5903 5903 5905 5906 5906 5908 5907 5906 5906 5906 5904 5905 5907 5907 5906 5904 5904 5905 5906 5906 5907 5908 5909 5909 5909 5908 5908 5906 5905
5899 5901 5901 5899 5901 5904 5904 5905 5906 5908 5906 5905 5903 5903 5906 5905 5907 5905 5905 5905 5905 5906 5906 5907 5907 5908 5908 5908 5907 5906 5905 5904
5897 5898 5899 5898 5898 5901 5903 5904 5905 5907 5907 5906 5906 5904 5905 5907 5907 5906 5906 5905 5906 5907 5907 5907 5907 5906 5906 5906 5906 5905 5904 5902
5895 5896 5896 5895 5896 5898 5901 5903 5904 5907 5909 5908 5909 5909 5906 5906 5906 5906 5905 5905 5906 5907 5906 5907 5907 5906 5905 5904 5904 5903 5901 5900
5893 5891 5892 5892 5893 5894 5897 5900 5900 5901 5904 5907 5908 5910 5907 5906 5905 5905 5904 5905 5905 5906 5907 5906 5905 5904 5904 5902 5902 5901 5899 5897
5888 5890 5889 5890 5891 5892 5893 5894 5894 5895 5897 5901 5905 5908 5908 5907 5904 5905 5906 5905 5904 5904 5906 5905 5903 5902 5901 5900 5897 5897 5895 5894
5885 5889 5890 5887 5889 5889 5890 5892 5891 5891 5890 5893 5903 5904 5905 5906 5906 5905 5904 5904 5902 5901 5902 5903 5900 5899 5897 5895 5893 5892 5892 5891
5884 5886 5887 5888 5886 5889 5888 5887 5888 5888 5888 5889 5894 5901 5902 5904 5904 5903 5902 5900 5900 5899 5898 5899 5898 5895 5893 5892 5891 5890 5889 5888
5883 5883 5884 5885 5889 5892 5887 5884 5884 5884 5885 5889 5891 5892 5896 5898 5899 5898 5898 5897 5897 5896 5897 5897 5896 5893 5890 5889 5888 5888 5888 5886
5881 5880 5880 5880 5883 5890 5881 5879 5879 5882 5883 5886 5888 5889 5889 5891 5893 5894 5893 5893 5892 5893 5894 5894 5894 5891 5889 5889 5888 5886 5886 5884
5876 5877 5873 5874 5875 5877 5876 5875 5875 5877 5878 5881 5884 5886 5886 5887 5888 5889 5889 5889 5889 5890 5890 5890 5889 5888 5888 5887 5886 5885 5883 5881
5868 5866 5866 5868 5870 5869 5870 5867 5870 5873 5874 5876 5878 5880 5882 5883 5883 5883 5884 5885 5886 5887 5886 5886 5885 5883 5880 5880 5880 5879 5877 5874
5861 5862 5859 5861 5861 5864 5863 5861 5863 5867 5869 5871 5872 5873 5876 5877 5878 5878 5879 5879 5880 5880 5880 5880 5879 5878 5873 5870 5869 5868 5867 5866
5857 5855 5851 5853 5854 5857 5858 5859 5857 5860 5865 5866 5868 5869 5870 5870 5871 5872 5872 5872 5872 5872 5871 5871 5869 5868 5867 5865 5865 5864 5863 5862
5848 5847 5845 5845 5844 5849 5851 5851 5853 5856 5860 5862 5864 5865 5867 5867 5866 5866 5867 5866 5865 5864 5864 5864 5865 5864 5862 5861 5859 5858 5857 5855